Starlink 30232

operational
NORAD ID: 57303 Int'l Des: 2023-096 Owner: SPXS Country: US Constellation: starlink
LEOCIRCULAR

关于 Starlink 30232

正在加载描述...

实时位置

正在加载3D地球...

即将过境

高度历史

Altitude vs Time

uPlot chart will show altitude changes over time

两行轨道根数

1 57303U 23096P 25354.58336806 .00173449 00000-0 31101-2 0 9992
2 57303 42.9891 255.1352 0032853 201.4591 89.3373 15.47989481 5935
Epoch: Dec 20, 2025 • Age: 7 hours

当前状态

高度 443.2 km
速度 7.64 km/s
星下点 30.62°N, 107.52°W
发射日期 Jul 10, 2023
运行时间 2.4 years
类型 internet

技术详情

分类 Payload
质量 730.00 kg
干质量 700.00 kg
总质量 730.00 kg
长度 0.30 m
直径 4.10 m
跨度 29.00 m
形状 Box + pan
制造商 SPXS
平台类型 Starlink V2M
阶段状态 In Orbit
所有者/国家 SPXS/US

大型星座

Loading constellations...